loading
DOY 175 | 2024-06-23T12:00:06Z

STARLINK-31970, 59928

Orbit data source: Space-Track

STARLINK-31970, 59928 is a payload satellite owned by SpaceX/Seattle (US) in LEO that was launched on Sat, 01 Jun 2024 UTC via a Falcon 9 launch vehicle from the Air Force Eastern Test Range (AFETR). Payloads include a variety of satellites, spacecraft, and rockets equipped with specific instruments for various scientific and technological missions. These include communications satellites like Starlink; space stations such as the ISS; scientific satellites like the Hubble; Earth observation satellites from companies like Planet Labs, Umbra, and HawkEye 360; GPS; miniature CubeSats for education and research; and military/defense satellites.

Loading next visibility...
Loading greatness...
STARLINK-31970 details
NORAD ID59928
COSPAR ID
2024-106G
Orbit
LEO
Last TLE update14 hours ago
Origin
Flag of USSpaceX/Seattle (US)
ManufacturerSpaceX/Seattle
BusStarlink V2M
MotorUnknown
Mass750 kg wet, ~700 kg dry
Launch date (UTC)
2024-06-01 (3 weeks ago)
Launch vehicle
Falcon 9
Launch site
Air Force Eastern Test Range (AFETR)
Object type
Payload
Rocket body
Debris
Radar Cross SectionLarge (>1 m²)
Predictive object data (real-time)
Latitude-17.51784°
Longitude-112.96677°
Altitude384.367 km
Speed7.68 km/s
Apparent Right ascension09h 40m 24s
Apparent Declination-29° 35' 50"
Sunlit
Object is in daylight
Predictive observer data (real-time)
Local Sidereal Time23:08:13
Azimuth66.898° ENE
Elevation-69.304°
Doppler factor1
Orbital elements
Apogee377.441 km
Perigee375.648 km
Semi-major axis6,754.681 km
Eccentricity0.0001327
Inclination43°
RAAN292.4208°
Arg. of periapsis286.1705°
True anomaly232.24108°
Mean anomaly232.2531°
Mean motion3.90963 °/min
BSTAR-0.019673
Period92.08 mins
Definitive object data (Epoch: 2024-06-22T22:00:00.999Z)
Latitude14.56391°
Longitude-145.24065°
Altitude374.158 km
Speed7.688 km/s
True Right ascension06h 25m 20s
True Declination14° 28' 32"
Sunlit
Object was in daylight at TLE epoch
TLE from 14 hours ago
0 STARLINK-31970
1 59928U 24106G   24174.91667824 -.01745784  00000-0 -19673-1 0  9992
2 59928  43.0000 292.4208 0001327 286.1705 232.2531 15.64537950  4659
Epoch: 2024-06-22T22:00Z
No data available

STARLINK-31970 Visibility forecast

Observer location: 39.9160978°, -105.1181434, 0m alt.

STARLINK-31970 is not visible in the next 10 days
Span
Click to sort rows by Start time (UTC) header in descending order
Start Az.
Max El. time (UTC)
Max El. Az.
Max El.
End time (UTC)
End Az.